JBU461 KLGA-KPBI

Flight info

Callsign JBU461
Flight time N/A
Altitude 36000
Route WHITE Q409 CRPLR EARZZ Q131 WAALT Y289 DULEE CLMNT2
Aircraft A320/M-SDE3FGHIRWY/LB1

Departure

Time 2026-05-05 21:45
Airport LaGuardia Airport (KLGA)

Arrival

Time N/A
Airport Palm Beach International Airport (KPBI)
Time Latitude Longitude Altitude Speed Heading
2026-05-05 21:14 40.77368 -73.87009 20 ft 0 kts 66°
2026-05-05 21:35 40.77367 -73.87010 19 ft 2 kts 66°
2026-05-05 21:36 40.77357 -73.87041 19 ft 4 kts 66°
2026-05-05 21:36 40.77349 -73.87063 19 ft 4 kts 17°
2026-05-05 21:36 40.77329 -73.87056 21 ft 4 kts 316°
2026-05-05 21:36 40.77335 -73.87065 22 ft 4 kts 312°
2026-05-05 21:37 40.77353 -73.87091 19 ft 4 kts 312°
2026-05-05 21:37 40.77356 -73.87096 19 ft 0 kts 312°
2026-05-05 21:40 40.77360 -73.87102 21 ft 2 kts 312°
2026-05-05 21:40 40.77380 -73.87117 21 ft 5 kts 354°
2026-05-05 21:40 40.77417 -73.87093 22 ft 8 kts 32°
2026-05-05 21:40 40.77487 -73.87035 19 ft 14 kts 32°
2026-05-05 21:41 40.77573 -73.86966 18 ft 14 kts 31°
2026-05-05 21:41 40.77663 -73.86997 13 ft 13 kts 342°
2026-05-05 21:41 40.77724 -73.87030 14 ft 11 kts 304°
2026-05-05 21:41 40.77765 -73.87115 15 ft 12 kts 302°
2026-05-05 21:42 40.77814 -73.87218 13 ft 15 kts 302°
2026-05-05 21:42 40.77878 -73.87352 16 ft 18 kts 301°
2026-05-05 21:42 40.77923 -73.87448 16 ft 4 kts 303°
2026-05-05 21:42 40.77944 -73.87490 16 ft 8 kts 303°
2026-05-05 21:43 40.77991 -73.87592 15 ft 19 kts 302°
2026-05-05 21:43 40.78062 -73.87738 18 ft 17 kts 302°
2026-05-05 21:43 40.78107 -73.87830 19 ft 9 kts 303°
2026-05-05 21:43 40.78165 -73.87864 9 ft 10 kts 350°
2026-05-05 21:44 40.78209 -73.87817 14 ft 10 kts 103°
2026-05-05 21:44 40.78118 -73.87619 11 ft 56 kts 122°
2026-05-05 21:44 40.77790 -73.86931 17 ft 116 kts 122°
2026-05-05 21:44 40.77275 -73.85858 119 ft 151 kts 124°
2026-05-05 21:45 40.76707 -73.84747 791 ft 142 kts 143°
2026-05-05 21:45 40.75910 -73.84045 1314 ft 139 kts 169°
2026-05-05 21:45 40.74912 -73.83718 1515 ft 159 kts 174°
2026-05-05 21:45 40.73767 -73.83418 1786 ft 178 kts 175°
2026-05-05 21:46 40.72474 -73.83042 2011 ft 203 kts 173°
2026-05-05 21:46 40.71048 -73.82749 2559 ft 206 kts 190°
2026-05-05 21:46 40.69632 -73.83056 3304 ft 209 kts 197°
2026-05-05 21:46 40.68189 -73.83434 4063 ft 213 kts 197°
2026-05-05 21:47 40.66809 -73.84071 4806 ft 213 kts 216°
2026-05-05 21:47 40.65601 -73.85250 5469 ft 219 kts 220°
2026-05-05 21:47 40.64397 -73.86476 6255 ft 223 kts 220°
2026-05-05 21:47 40.63162 -73.87738 7047 ft 226 kts 221°
2026-05-05 21:48 40.61883 -73.88986 7784 ft 234 kts 217°
2026-05-05 21:48 40.60441 -73.90192 8193 ft 252 kts 217°
2026-05-05 21:48 40.58938 -73.91414 8882 ft 258 kts 216°
2026-05-05 21:48 40.57306 -73.92489 9626 ft 265 kts 211°
2026-05-05 21:49 40.55613 -73.93504 10278 ft 272 kts 210°